Change the Weather History Date:

Wednesday, August 29, 2012

  Actual Average Record
Temperature  
Mean Temperature 70 °F 72 °F  
Max Temperature 78 °F 79 °F 98 °F (1953)
Min Temperature 62 °F 64 °F 44 °F (1982)
Degree Days  
Heating Degree Days 0 0  
Month to date heating degree days 0 0  
Since 1 June heating degree days 19 33  
Since 1 July heating degree days 0 1  
Cooling Degree Days 5 7  
Month to date cooling degree days 319 249  
Year to date cooling degree days 933 705  
Since 1 June cooling degree days 874 681  
Growing Degree Days 21 (Base 50)    
Moisture  
Dew Point 52 °F    
Average Humidity 56    
Maximum Humidity 78    
Minimum Humidity 33    
Precipitation  
Precipitation 0.00 in 0.10 in 2.07 in (2002)
Month to date precipitation 3.33 3.74  
Year to date precipitation 25.21 28.68  
Snow  
Snow 0.00 in 0.00 in 0.00 in (2002)
Month to date snowfall 0.0 0.0  
Since 1 July snowfall 0.0 0.0  
Snow Depth 0.00 in    
Sea Level Pressure  
Sea Level Pressure 29.96 in    
Wind  
Wind Speed 6 mph (North)    
Max Wind Speed 14 mph    
Max Gust Speed 17 mph    
Visibility 10 miles    
Events      
T = Trace of Precipitation, MM = Missing Value Source: NWS Daily Summary

Daily Weather History Graph

Daily Weather History Graph

Search for Another Location

Airport or City:

Trip Planner

Search our weather history database for the weather conditions in past years. The results will help you decide how hot, cold, wet, or windy it might be!

Date:

Astronomy

Aug. 29, 2012 Rise Set
Actual Time 6:16 AM EDT 7:29 PM EDT
Civil Twilight 5:47 AM EDT 7:57 PM EDT
Nautical Twilight 5:13 AM EDT 8:31 PM EDT
Astronomical Twilight 4:38 AM EDT 9:07 PM EDT
Moon 6:08 PM EDT (8/29) 4:08 AM EDT (8/29)
Length of Visible Light 14h 09m
Length of Day
13h 12m
Waxing Gibbous, 96% of the Moon is Illuminated
Aug 29
Waxing Gibbous
Aug 31
Full
Sep 8
Last Quarter
Sep 15
New
Sep 22
First Quarter

Hourly Weather History & Observations

Time (EDT) Temp. Dew Point Humidity Pressure Visibility Wind Dir Wind Speed Gust Speed Precip Events Conditions
12:52 AM 72.0 °F 57.0 °F 59% 29.89 in 10.0 mi NNW 9.2 mph - N/A   Clear
1:52 AM 71.1 °F 57.0 °F 61% 29.89 in 10.0 mi NNW 9.2 mph - N/A   Clear
2:52 AM 68.0 °F 57.9 °F 70% 29.89 in 10.0 mi North 5.8 mph - N/A   Clear
3:52 AM 68.0 °F 57.9 °F 70% 29.90 in 10.0 mi NNW 5.8 mph - N/A   Clear
4:52 AM 66.9 °F 57.0 °F 70% 29.91 in 10.0 mi North 8.1 mph - N/A   Clear
5:52 AM 64.9 °F 57.0 °F 75% 29.93 in 10.0 mi North 6.9 mph - N/A   Clear
6:52 AM 64.9 °F 55.9 °F 73% 29.96 in 10.0 mi NNE 6.9 mph - N/A   Clear
7:52 AM 66.9 °F 55.9 °F 68% 29.99 in 10.0 mi North 8.1 mph - N/A   Clear
8:52 AM 69.1 °F 52.0 °F 54% 30.00 in 10.0 mi NNE 11.5 mph - N/A   Clear
9:52 AM 71.1 °F 50.0 °F 47% 30.00 in 10.0 mi NE 9.2 mph - N/A   Clear
10:52 AM 72.0 °F 50.0 °F 46% 30.00 in 10.0 mi North 6.9 mph - N/A   Clear
11:52 AM 73.9 °F 48.9 °F 41% 30.00 in 10.0 mi NNW 8.1 mph - N/A   Clear
12:52 PM 73.9 °F 48.0 °F 40% 29.99 in 10.0 mi Calm Calm - N/A   Clear
1:52 PM 75.9 °F 48.9 °F 38% 29.98 in 10.0 mi North 8.1 mph 16.1 mph N/A   Clear
2:52 PM 77.0 °F 48.9 °F 37% 29.96 in 10.0 mi NNW 8.1 mph - N/A   Clear
3:52 PM 77.0 °F 48.0 °F 36% 29.96 in 10.0 mi North 10.4 mph 16.1 mph N/A   Clear
4:52 PM 77.0 °F 46.9 °F 34% 29.96 in 10.0 mi Variable 5.8 mph - N/A   Clear
5:52 PM 75.9 °F 45.0 °F 33% 29.96 in 10.0 mi NNW 8.1 mph - N/A   Clear
6:52 PM 75.0 °F 46.9 °F 37% 29.96 in 10.0 mi NNW 6.9 mph - N/A   Clear
7:52 PM 73.0 °F 46.9 °F 39% 29.97 in 10.0 mi Calm Calm - N/A   Clear
8:52 PM 69.1 °F 52.0 °F 54% 29.99 in 10.0 mi North 3.5 mph - N/A   Clear
9:52 PM 66.0 °F 51.1 °F 59% 30.00 in 10.0 mi North 3.5 mph - N/A   Clear
10:52 PM 64.0 °F 51.1 °F 63% 30.01 in 10.0 mi Calm Calm - N/A   Clear
11:52 PM 63.0 °F 50.0 °F 63% 30.02 in 10.0 mi North 3.5 mph - N/A   Clear